Zurück zum Katalog

CZ-4 DEB

AktivSSO
NORAD 20850·DEBRIS·🇨🇳 China

Gestartet Sep 3, 1990 von Taiyuan Satellite Launch Center

Loading…

Nächste Überflüge (nächste 24 Stunden)

TLE

AktuellSource: Space-Track

Epoche: Sep 14, 2026, 14:57 UTC

1 20850U 90081N   26257.62332779  .00000265  00000-0  11100-3 0  9993
2 20850  98.4389 305.2022 0071333 318.6753 204.4701 14.32275455875761

Verfolge CZ-4 DEB in Echtzeit mit AllMySat

Download on the App Store